sat.trackr.live / text

‹ back to catalog

STARLINK-37733

NORAD 69329 · 2026-122A

PAYLOAD ACTIVE UNKNOWN

§ Identity

Operator
Country
US
Launch date
2026-06-03
Launch site
AFWTR
Launch vehicle
Mass (kg)
RCS (m²)

Purposes: comms

External: N2YO · Heavens-Above · Gunter

§ Orbital elements

Epoch: 2026-09-19T12:25:03.925920Z

Period
93.91 min
Inclination
97.2830°
Eccentricity
0.0001607
Mean motion
15.33458068 rev/d
Perigee alt
464.4 km
Apogee alt
466.6 km
Semi-major
6,843.6 km
B*
9.4126e-5
RAAN
291.0743°
Arg perigee
164.3658°
Mean anomaly
195.7635°
Rev number
1,664

§ Raw data

STARLINK-377331 69329U 26122A   26262.51740655  .00002966  00000+0  94126-4 0  99912 69329  97.2830 291.0743 0001607 164.3658 195.7635 15.33458068 16649

JSON: /api/v1/satellites/69329 · /tle

For live sub-satellite position, see the globe view (requires WebGL).

§ Visibility from observer

Set your observer location to see the next 7 days of passes ≥ 10°. The values pass through the URL so the page stays shareable.

No JS? Fill the form by hand. The geolocation button needs JavaScript.